Location: Chinatown
(37.7966°N, 122.4086°W)
Time: 06:05:58
(UTC+00:00)

Cosmos 773 Rocket - Pass Details

Date: 03 August 2024
Orbit: 742 x 775 km, 74.1° (Epoch: 14 September)

Event Time Altitude Azimuth Distance (km) Brightness Sun altitude
Exits shadow 12:31:40 - 200° (SSW) 2,887 6.5 -8.6°
Reaches altitude 10° 12:33:17 10° 202° (SSW) 2,255 6.0 -8.3°
Maximum altitude 12:38:24 78° 288° (WNW) 772 4.0 -7.4°
Drops below altitude 10° 12:43:35 10° 15° (NNE) 2,290 7.1 -6.5°
Sets 12:45:59 0° 17° (NNE) 3,225 8.0 -6.1°
